Location: ????????
(55.6189°N, 38.3031°E)
Time: 11:35:39
(UTC+00:00)

FALCON 9 DEB - Pass Details

Date: 15 November 2019
Orbit: 430 x 444 km, 53.0° (Epoch: 05 December)

Event Time Altitude Azimuth Distance (km) Brightness Sun altitude
Exits shadow 02:51:17 30° 213° (SSW) 795 4.2 -17.9°
Maximum altitude 02:52:26 43° 164° (SSE) 621 4.0 -17.7°
Drops below altitude 10° 02:55:43 10° 92° (E) 1,535 7.2 -17.3°
Sets 02:57:53 0° 86° (E) 2,404 8.5 -17.0°
